| time (UTC) | temp C | wind direction | speed KPH | gust KPH | rain 1hr cm | rain 24hr cm | rain mn cm | humidity % | barometer mb |
| 20260506004219 | 10 | 60 | 8.0 | 14.5 | 0.00 | 0.03 | 0.00 | 78 | 1010.4 |
| 20260506003222 | 10 | 49 | 9.7 | 14.5 | 0.00 | 0.03 | 0.00 | 77 | 1010.2 |
| 20260506002239 | 10 | 39 | 9.7 | 17.7 | 0.00 | 0.03 | 0.00 | 76 | 1010.3 |
| 20260506001221 | 10 | 28 | 9.7 | 12.9 | 0.00 | 0.03 | 0.00 | 76 | 1009.9 |
| 20260506000302 | 10 | 49 | 8.0 | 14.5 | 0.00 | 0.03 | 0.00 | 75 | 1010.2 |
| 20260505235222 | 10 | 47 | 6.4 | 9.7 | 0.00 | 0.03 | 0.00 | 74 | 1010.0 |
| 20260505234222 | 11 | 40 | 9.7 | 12.9 | 0.00 | 0.03 | 0.00 | 73 | 1009.9 |
| 20260505233222 | 11 | 45 | 6.4 | 8.0 | 0.00 | 0.03 | 0.00 | 73 | 1010.2 |
| 20260505232222 | 11 | 48 | 6.4 | 11.3 | 0.00 | 0.03 | 0.00 | 72 | 1010.6 |
| 20260505231243 | 11 | 359 | 6.4 | 9.7 | 0.00 | 0.03 | 0.00 | 72 | 1010.3 |
| 20260505230219 | 11 | 27 | 11.3 | 19.3 | 0.00 | 0.03 | 0.00 | 72 | 1009.9 |
| 20260505225216 | 11 | 30 | 8.0 | 14.5 | 0.00 | 0.03 | 0.00 | 72 | 1009.9 |
| 20260505224219 | 11 | 18 | 9.7 | 14.5 | 0.00 | 0.03 | 0.00 | 72 | 1009.7 |
| 20260505223223 | 11 | 28 | 11.3 | 16.1 | 0.00 | 0.03 | 0.00 | 72 | 1009.8 |
| 20260505222220 | 11 | 48 | 8.0 | 11.3 | 0.00 | 0.03 | 0.00 | 72 | 1009.8 |
| 20260505221223 | 11 | 44 | 6.4 | 11.3 | 0.00 | 0.03 | 0.00 | 72 | 1009.3 |
| 20260505220217 | 11 | 51 | 9.7 | 14.5 | 0.00 | 0.03 | 0.00 | 72 | 1009.3 |
| 20260505215217 | 11 | 53 | 9.7 | 16.1 | 0.00 | 0.03 | 0.00 | 72 | 1009.3 |
| 20260505214218 | 11 | 54 | 11.3 | 17.7 | 0.00 | 0.03 | 0.00 | 72 | 1008.7 |
| 20260505213220 | 11 | 43 | 6.4 | 11.3 | 0.00 | 0.05 | 0.00 | 72 | 1008.8 |
| 20260505212220 | 11 | 16 | 9.7 | 14.5 | 0.00 | 0.05 | 0.00 | 71 | 1008.8 |
| 20260505211218 | 11 | 38 | 8.0 | 14.5 | 0.00 | 0.05 | 0.00 | 72 | 1008.6 |
| 20260505210218 | 12 | 29 | 12.9 | 20.9 | 0.00 | 0.05 | 0.00 | 72 | 1008.6 |
| 20260505205218 | 12 | 39 | 12.9 | 17.7 | 0.00 | 0.05 | 0.00 | 73 | 1008.4 |
| 20260505204218 | 12 | 29 | 9.7 | 17.7 | 0.00 | 0.05 | 0.00 | 73 | 1009.1 |
| 20260505203218 | 12 | 56 | 11.3 | 14.5 | 0.00 | 0.05 | 0.00 | 73 | 1009.2 |
| 20260505202218 | 12 | 30 | 11.3 | 12.9 | 0.00 | 0.05 | 0.00 | 74 | 1008.6 |
| 20260505201218 | 12 | 42 | 9.7 | 14.5 | 0.00 | 0.05 | 0.00 | 75 | 1008.3 |
| 20260505200219 | 12 | 49 | 11.3 | 14.5 | 0.00 | 0.05 | 0.00 | 76 | 1008.3 |
| 20260505195218 | 12 | 22 | 11.3 | 16.1 | 0.00 | 0.05 | 0.00 | 76 | 1008.3 |
| 20260505194239 | 12 | 4 | 11.3 | 17.7 | 0.00 | 0.05 | 0.00 | 77 | 1008.4 |
| 20260505193219 | 12 | 21 | 9.7 | 14.5 | 0.00 | 0.05 | 0.00 | 78 | 1008.4 |
| 20260505192219 | 12 | 31 | 8.0 | 12.9 | 0.00 | 0.05 | 0.00 | 79 | 1008.3 |
| 20260505191219 | 12 | 47 | 9.7 | 14.5 | 0.00 | 0.05 | 0.00 | 79 | 1008.0 |
| 20260505190239 | 12 | 49 | 4.8 | 11.3 | 0.00 | 0.05 | 0.00 | 80 | 1008.1 |
| 20260505185239 | 12 | 352 | 9.7 | 17.7 | 0.00 | 0.05 | 0.00 | 79 | 1008.2 |
| 20260505184219 | 12 | 15 | 6.4 | 11.3 | 0.00 | 0.05 | 0.00 | 79 | 1008.0 |
| 20260505183219 | 12 | 359 | 6.4 | 9.7 | 0.00 | 0.05 | 0.00 | 78 | 1007.9 |
| 20260505182219 | 13 | 20 | 6.4 | 9.7 | 0.00 | 0.05 | 0.00 | 77 | 1007.7 |
| 20260505181219 | 13 | 39 | 4.8 | 11.3 | 0.00 | 0.05 | 0.00 | 78 | 1007.6 |
| 20260505180319 | 13 | 46 | 8.0 | 11.3 | 0.00 | 0.05 | 0.00 | 78 | 1007.4 |
| 20260505175220 | 13 | 57 | 6.4 | 9.7 | 0.00 | 0.05 | 0.00 | 79 | 1007.4 |
| 20260505174216 | 13 | 33 | 11.3 | 14.5 | 0.00 | 0.05 | 0.00 | 80 | 1007.1 |
| 20260505173220 | 13 | 19 | 11.3 | 19.3 | 0.00 | 0.05 | 0.00 | 80 | 1007.0 |
| 20260505172220 | 13 | 51 | 12.9 | 17.7 | 0.00 | 0.05 | 0.00 | 80 | 1006.8 |
| 20260505171220 | 13 | 22 | 14.5 | 20.9 | 0.00 | 0.05 | 0.00 | 81 | 1006.7 |
| 20260505170237 | 13 | 15 | 11.3 | 14.5 | 0.00 | 0.05 | 0.00 | 81 | 1006.5 |
| 20260505165217 | 13 | 41 | 11.3 | 17.7 | 0.00 | 0.05 | 0.00 | 81 | 1006.2 |
| 20260505164220 | 13 | 27 | 9.7 | 14.5 | 0.00 | 0.05 | 0.00 | 81 | 1006.2 |
| 20260505163240 | 13 | 49 | 9.7 | 14.5 | 0.00 | 0.05 | 0.00 | 82 | 1005.9 |
| 20260505162220 | 14 | 24 | 12.9 | 19.3 | 0.00 | 0.05 | 0.00 | 82 | 1005.6 |
| 20260505161237 | 14 | 17 | 9.7 | 16.1 | 0.00 | 0.05 | 0.00 | 82 | 1005.2 |
| 20260505160221 | 15 | 3 | 9.7 | 12.9 | 0.00 | 0.05 | 0.00 | 82 | 1004.7 |
| 20260505153238 | 16 | 25 | 9.7 | 16.1 | 0.00 | 0.05 | 0.00 | 82 | 1004.1 |
| 20260505152218 | 17 | 19 | 8.0 | 12.9 | 0.00 | 0.05 | 0.00 | 81 | 1003.8 |
| 20260505151218 | 18 | 8 | 8.0 | 11.3 | 0.00 | 0.05 | 0.00 | 81 | 1003.4 |
| 20260505150239 | 20 | 27 | 9.7 | 14.5 | 0.00 | 0.05 | 0.00 | 84 | 1003.0 |
| 20260505140242 | 20 | 107 | 4.8 | 9.7 | 0.00 | 0.05 | 0.00 | 83 | 1001.9 |
| 20260505130217 | 21 | 73 | 6.4 | 8.0 | 0.00 | 0.05 | 0.00 | 78 | 1001.6 |
| 20260505124218 | 21 | 62 | 0.0 | 0.0 | 0.00 | 0.05 | 0.00 | 76 | 1001.5 |
| 20260505123232 | 21 | 26 | 0.0 | 1.6 | 0.00 | 0.05 | 0.00 | 76 | 1001.4 |
| 20260505122232 | 21 | 13 | 3.2 | 3.2 | 0.00 | 0.05 | 0.00 | 76 | 1001.3 |
| 20260505121233 | 21 | 60 | 1.6 | 3.2 | 0.00 | 0.05 | 0.00 | 76 | 1001.0 |
| 20260505120232 | 21 | 66 | 1.6 | 3.2 | 0.00 | 0.05 | 0.00 | 75 | 1001.0 |
| 20260505115218 | 21 | 20 | 1.6 | 3.2 | 0.00 | 0.05 | 0.00 | 74 | 1001.0 |
| 20260505114218 | 21 | 46 | 6.4 | 8.0 | 0.00 | 0.05 | 0.00 | 72 | 1000.6 |
| 20260505113218 | 22 | 24 | 3.2 | 4.8 | 0.00 | 0.05 | 0.00 | 71 | 1000.0 |
| 20260505112218 | 22 | 346 | 4.8 | 4.8 | 0.00 | 0.05 | 0.00 | 71 | 999.7 |
| 20260505111218 | 22 | 223 | 14.5 | 17.7 | 0.00 | 0.05 | 0.00 | 70 | 999.5 |
| 20260505110218 | 22 | 238 | 9.7 | 11.3 | 0.00 | 0.05 | 0.00 | 70 | 999.6 |
| 20260505102220 | 22 | 216 | 14.5 | 20.9 | 0.00 | 0.05 | 0.00 | 71 | 998.8 |
| 20260505101217 | 22 | 215 | 16.1 | 20.9 | 0.00 | 0.05 | 0.00 | 70 | 998.7 |
| 20260505100237 | 22 | 213 | 14.5 | 22.5 | 0.00 | 0.05 | 0.00 | 71 | 998.8 |
| 20260505095220 | 22 | 222 | 11.3 | 14.5 | 0.00 | 0.05 | 0.00 | 71 | 998.8 |
| 20260505094240 | 22 | 218 | 17.7 | 25.7 | 0.00 | 0.05 | 0.00 | 71 | 998.7 |
| 20260505093217 | 22 | 208 | 19.3 | 30.6 | 0.00 | 0.05 | 0.00 | 70 | 998.6 |
| 20260505092217 | 22 | 211 | 16.1 | 27.4 | 0.00 | 0.05 | 0.00 | 70 | 998.6 |
| 20260505091217 | 22 | 215 | 12.9 | 19.3 | 0.00 | 0.05 | 0.00 | 70 | 998.8 |
| 20260505090218 | 22 | 214 | 14.5 | 20.9 | 0.00 | 0.05 | 0.00 | 71 | 998.9 |
| 20260505085218 | 22 | 218 | 11.3 | 14.5 | 0.00 | 0.05 | 0.00 | 71 | 999.0 |
| 20260505084218 | 22 | 211 | 14.5 | 20.9 | 0.00 | 0.05 | 0.00 | 70 | 999.0 |
| 20260505083218 | 22 | 211 | 19.3 | 24.1 | 0.00 | 0.05 | 0.00 | 70 | 999.0 |
| 20260505082218 | 22 | 208 | 12.9 | 20.9 | 0.00 | 0.05 | 0.00 | 70 | 999.3 |
| 20260505081218 | 22 | 213 | 17.7 | 29.0 | 0.00 | 0.05 | 0.00 | 71 | 999.3 |
| 20260505080218 | 22 | 224 | 16.1 | 20.9 | 0.00 | 0.05 | 0.00 | 70 | 999.3 |
| 20260505075219 | 22 | 212 | 24.1 | 32.2 | 0.00 | 0.05 | 0.00 | 71 | 999.3 |
| 20260505074219 | 22 | 209 | 16.1 | 22.5 | 0.00 | 0.05 | 0.00 | 71 | 999.4 |
| 20260505073219 | 22 | 209 | 16.1 | 20.9 | 0.00 | 0.05 | 0.00 | 71 | 999.5 |
| 20260505072219 | 22 | 219 | 12.9 | 25.7 | 0.00 | 0.05 | 0.00 | 70 | 999.7 |
| 20260505071219 | 22 | 206 | 16.1 | 22.5 | 0.00 | 0.05 | 0.00 | 70 | 999.7 |
| 20260505070219 | 22 | 210 | 19.3 | 27.4 | 0.00 | 0.05 | 0.00 | 70 | 1000.0 |
| 20260505065219 | 22 | 211 | 11.3 | 17.7 | 0.00 | 0.05 | 0.00 | 70 | 1000.1 |
| 20260505064219 | 22 | 196 | 19.3 | 30.6 | 0.00 | 0.05 | 0.00 | 70 | 1000.1 |
| 20260505063217 | 23 | 204 | 17.7 | 22.5 | 0.00 | 0.05 | 0.00 | 70 | 1000.2 |
| 20260505062217 | 23 | 210 | 19.3 | 24.1 | 0.00 | 0.05 | 0.00 | 70 | 1000.2 |
| 20260505061240 | 23 | 204 | 14.5 | 20.9 | 0.00 | 0.05 | 0.00 | 69 | 1000.4 |
| 20260505060300 | 23 | 203 | 12.9 | 16.1 | 0.00 | 0.05 | 0.00 | 69 | 1000.5 |
| 20260505055218 | 23 | 199 | 14.5 | 20.9 | 0.00 | 0.05 | 0.00 | 69 | 1000.5 |
| 20260505054217 | 23 | 199 | 16.1 | 30.6 | 0.00 | 0.05 | 0.00 | 69 | 1000.6 |
| 20260505053217 | 23 | 190 | 16.1 | 25.7 | 0.00 | 0.05 | 0.00 | 69 | 1000.7 |
| 20260505052218 | 23 | 205 | 20.9 | 30.6 | 0.00 | 0.05 | 0.00 | 68 | 1000.7 |
| 20260505051221 | 23 | 200 | 17.7 | 24.1 | 0.00 | 0.05 | 0.00 | 68 | 1000.8 |
| 20260505050218 | 23 | 189 | 22.5 | 30.6 | 0.00 | 0.05 | 0.00 | 68 | 1000.9 |
| 20260505041239 | 23 | 192 | 16.1 | 25.7 | 0.00 | 0.05 | 0.05 | 67 | 1001.4 |
| 20260505040219 | 23 | 193 | 14.5 | 22.5 | 0.00 | 0.05 | 0.05 | 67 | 1001.4 |
| 20260505035239 | 23 | 199 | 16.1 | 24.1 | 0.00 | 0.05 | 0.05 | 66 | 1001.4 |
| 20260505034219 | 23 | 193 | 22.5 | 33.8 | 0.00 | 0.05 | 0.05 | 66 | 1001.4 |
| 20260505033256 | 24 | 188 | 19.3 | 33.8 | 0.00 | 0.05 | 0.05 | 65 | 1001.4 |
| 20260505032219 | 24 | 195 | 20.9 | 29.0 | 0.00 | 0.05 | 0.05 | 65 | 1001.2 |
| 20260505031239 | 24 | 180 | 20.9 | 29.0 | 0.00 | 0.05 | 0.05 | 64 | 1001.1 |
| 20260505030239 | 24 | 180 | 20.9 | 35.4 | 0.00 | 0.05 | 0.05 | 64 | 1001.2 |
| 20260505025240 | 24 | 186 | 22.5 | 30.6 | 0.00 | 0.05 | 0.05 | 63 | 1000.9 |
| 20260505024216 | 25 | 181 | 20.9 | 32.2 | 0.00 | 0.05 | 0.05 | 63 | 1000.7 |
| 20260505023217 | 25 | 190 | 17.7 | 22.5 | 0.00 | 0.05 | 0.05 | 62 | 1001.0 |
| 20260505022220 | 25 | 184 | 19.3 | 33.8 | 0.00 | 0.05 | 0.05 | 62 | 1000.8 |
| 20260505021220 | 25 | 178 | 24.1 | 37.0 | 0.00 | 0.05 | 0.05 | 62 | 1000.6 |
| 20260505020220 | 25 | 177 | 14.5 | 20.9 | 0.00 | 0.05 | 0.05 | 61 | 1000.7 |
| 20260505015217 | 25 | 179 | 17.7 | 24.1 | 0.00 | 0.05 | 0.05 | 60 | 1000.7 |
| 20260505014217 | 25 | 191 | 19.3 | 25.7 | 0.00 | 0.05 | 0.05 | 59 | 1000.8 |
| 20260505013238 | 26 | 186 | 17.7 | 33.8 | 0.00 | 0.05 | 0.05 | 58 | 1000.9 |
| 20260505012221 | 26 | 187 | 14.5 | 22.5 | 0.00 | 0.05 | 0.05 | 58 | 1000.7 |
| 20260505011218 | 26 | 182 | 20.9 | 33.8 | 0.00 | 0.05 | 0.05 | 58 | 1000.8 |
| 20260505010218 | 26 | 188 | 16.1 | 24.1 | 0.00 | 0.05 | 0.05 | 57 | 1000.9 |
| 20260505005218 | 26 | 189 | 24.1 | 40.2 | 0.00 | 0.05 | 0.05 | 57 | 1001.0 |